Погода в Новлее

Россия / Республика Мордовия     53°55′40″N   44°33′04″E
темп.,
°C
ветер,
м/с
пор.,
м/с
влажн.,
%
обл.,
%
осадки,
мм/ч
давл.,
гПа
погр.,
м
11 мая, вт
вт1100:00+11св9189589 0.1 1020371
03:00+10св8179799 0.1 1020374
06:00+12св71494100 0.0 1020360
09:00+16в61281100 0.0 1022780
12:00+18вюв5867100 0.2 10231247
15:00+13ююв4788100 1.2 1026372
18:00+15вюв2381100 0.1 1026179
21:00+11з118297 0.1 102710
12 мая, ср
ср1200:00+11сз2278100 0.0 102731
03:00+10с349195 0.1 102663
06:00+11всв3109298 0.0 1025279
09:00+14в61484100 0.1 1024934
12:00+14в81682100 0.4 1023894
15:00+17вюв8147287 0.6 10231013
18:00+17вюв6117637 0.0 1023871
21:00+14вюв5118821 0.0 1023309
13 мая, чт
чт1300:00+14вюв51188100 0.0 1023307
03:00+13в499091 0.0 1023198
06:00+14в51279100 0.0 1021253
09:00+15вюв7137797 0.2 1020589
12:00+19юв8127695 0.3 10201054
15:00+19ююв6107398 0.4 1019998
18:00+18ююв51178100 2.6 1019465
21:00+16ююв3489100 3.4 101857
14 мая, пт
пт1400:00+14ююв39930 0.9 1019188
03:00+12ююз11928 0.9 101911
06:00+14юв1290100 0.0 102068
09:00+18ююв3379100 0.0 1020362
12:00+22ююв346565 0.0 1020724
15:00+24ююв465998 0.0 10191376
18:00+22ююв37715 0.0 1018208
21:00+17юв49805 0.0 1018149
15 мая, сб
сб1500:00+16ююв413817 0.0 1018236
03:00+15юв4137381 0.0 1018216
06:00+15ююв5137115 0.0 1018245
09:00+21ююв614615 0.0 1017510
12:00+24ююв7125115 0.0 10171008
15:00+24ююв813525 0.0 10161005
18:00+22ю61462100 0.0 1015477
21:00+18ююв51564100 0.0 1014294